owner,sensor,date,latitude,longitude,vertical_datum,direction_of_sea_water_velocity,sea_water_speed,upward_sea_water_velocity,qcFlag 
TABS,ioos:station:wmo:42043:1,2007-10-01T00:00:00Z,28.9818,-94.9186,2.0,213.6417585,39.71100099,-99999.0,'11111222,11111222,99999999' 
TABS,ioos:station:wmo:42043:1,2007-10-01T00:30:00Z,28.9818,-94.9186,2.0,202.6122576,24.00538481,-99999.0,'11111222,11111222,99999999' 
TABS,ioos:station:wmo:42043:1,2007-10-01T01:00:00Z,28.9818,-94.9186,2.0,266.554399,18.80398362,-99999.0,'11111222,11111222,99999999' 
TABS,ioos:station:wmo:42043:1,2007-10-01T01:30:00Z,28.9818,-94.9186,2.0,270.4416328,36.36107809,-99999.0,'11111222,11111222,99999999' 
TABS,ioos:station:wmo:42043:1,2007-10-01T02:00:00Z,28.9818,-94.9186,2.0,291.1342145,45.26445405,-99999.0,'11111222,11111222,99999999' 
TABS,ioos:station:wmo:42043:1,2007-10-01T02:30:00Z,28.9818,-94.9186,2.0,290.305363,41.66938924,-99999.0,'11111222,11111222,99999999' 
TABS,ioos:station:wmo:42043:1,2007-10-01T03:00:00Z,28.9818,-94.9186,2.0,239.2253188,37.34916599,-99999.0,'11111222,11111222,99999999' 
TABS,ioos:station:wmo:42043:1,2007-10-01T03:30:00Z,28.9818,-94.9186,2.0,245.8921224,36.50384226,-99999.0,'11111222,11111222,99999999' 
TABS,ioos:station:wmo:42043:1,2007-10-01T04:00:00Z,28.9818,-94.9186,2.0,245.3044141,37.55463354,-99999.0,'11111222,11111222,99999999' 
TABS,ioos:station:wmo:42043:1,2007-10-01T04:30:00Z,28.9818,-94.9186,2.0,248.2317875,34.86616268,-99999.0,'11111222,11111222,99999999' 
TABS,ioos:station:wmo:42043:1,2007-10-01T05:00:00Z,28.9818,-94.9186,2.0,250.0451249,34.22471768,-99999.0,'11111222,11111222,99999999' 
TABS,ioos:station:wmo:42043:1,2007-10-01T05:30:00Z,28.9818,-94.9186,2.0,257.2153882,36.74079204,-99999.0,'11111222,11111222,99999999' 
TABS,ioos:station:wmo:42043:1,2007-10-01T06:00:00Z,28.9818,-94.9186,2.0,258.2436859,34.01345175,-99999.0,'11111222,11111222,99999999' 
TABS,ioos:station:wmo:42043:1,2007-10-01T06:30:00Z,28.9818,-94.9186,2.0,258.8541706,33.47127873,-99999.0,'11111222,11111222,99999999' 
TABS,ioos:station:wmo:42043:1,2007-10-01T07:00:00Z,28.9818,-94.9186,2.0,258.6716703,31.20796213,-99999.0,'11111222,11111222,99999999' 
TABS,ioos:station:wmo:42043:1,2007-10-01T07:30:00Z,28.9818,-94.9186,2.0,264.1752181,29.56261321,-99999.0,'11111222,11111222,99999999' 
TABS,ioos:station:wmo:42043:1,2007-10-01T08:30:00Z,28.9818,-94.9186,2.0,266.3435574,25.56202261,-99999.0,'11111222,11111222,99999999' 
TABS,ioos:station:wmo:42043:1,2007-10-01T09:00:00Z,28.9818,-94.9186,2.0,265.3769316,25.31233889,-99999.0,'11111222,11111222,99999999' 
TABS,ioos:station:wmo:42043:1,2007-10-01T09:30:00Z,28.9818,-94.9186,2.0,253.2303132,23.49932765,-99999.0,'11111222,11111222,99999999' 
TABS,ioos:station:wmo:42043:1,2007-10-01T10:00:00Z,28.9818,-94.9186,2.0,238.9988727,26.54112658,-99999.0,'11111222,11111222,99999999' 
TABS,ioos:station:wmo:42043:1,2007-10-01T10:30:00Z,28.9818,-94.9186,2.0,238.7022673,26.5072707,-99999.0,'11111222,11111222,99999999' 
TABS,ioos:station:wmo:42043:1,2007-10-01T11:00:00Z,28.9818,-94.9186,2.0,223.673633,24.44415677,-99999.0,'11111222,11111222,99999999' 
TABS,ioos:station:wmo:42043:1,2007-10-01T12:00:00Z,28.9818,-94.9186,2.0,226.1506933,20.06466795,-99999.0,'11111222,11111222,99999999' 
TABS,ioos:station:wmo:42043:1,2007-10-01T12:30:00Z,28.9818,-94.9186,2.0,227.0274007,26.97887507,-99999.0,'11111222,11111222,99999999' 
TABS,ioos:station:wmo:42043:1,2007-10-01T13:00:00Z,28.9818,-94.9186,2.0,232.5695771,25.97924171,-99999.0,'11111222,11111222,99999999' 
TABS,ioos:station:wmo:42043:1,2007-10-01T13:30:00Z,28.9818,-94.9186,2.0,226.6716483,34.6559158,-99999.0,'11111222,11111222,99999999' 
TABS,ioos:station:wmo:42043:1,2007-10-01T14:00:00Z,28.9818,-94.9186,2.0,232.3619158,32.83294839,-99999.0,'11111222,11111222,99999999' 
TABS,ioos:station:wmo:42043:1,2007-10-01T14:30:00Z,28.9818,-94.9186,2.0,230.5443115,28.90742638,-99999.0,'11111222,11111222,99999999' 
TABS,ioos:station:wmo:42043:1,2007-10-01T15:00:00Z,28.9818,-94.9186,2.0,220.8005545,27.71520341,-99999.0,'11111222,11111222,99999999' 
TABS,ioos:station:wmo:42043:1,2007-10-01T15:30:00Z,28.9818,-94.9186,2.0,227.7651559,34.4408551,-99999.0,'11111222,11111222,99999999' 
TABS,ioos:station:wmo:42043:1,2007-10-01T16:00:00Z,28.9818,-94.9186,2.0,259.7290599,32.86662745,-99999.0,'11111222,11111222,99999999' 
TABS,ioos:station:wmo:42043:1,2007-10-01T16:30:00Z,28.9818,-94.9186,2.0,184.7032103,39.51306113,-99999.0,'11111222,11111222,99999999' 
TABS,ioos:station:wmo:42043:1,2007-10-01T17:00:00Z,28.9818,-94.9186,2.0,220.9597539,34.12491465,-99999.0,'11111222,11111222,99999999' 
TABS,ioos:station:wmo:42043:1,2007-10-01T17:30:00Z,28.9818,-94.9186,2.0,226.844098,32.73479036,-99999.0,'11111222,11111222,99999999' 
TABS,ioos:station:wmo:42043:1,2007-10-01T18:00:00Z,28.9818,-94.9186,2.0,231.8765659,30.17721823,-99999.0,'11111222,11111222,99999999' 
TABS,ioos:station:wmo:42043:1,2007-10-01T18:30:00Z,28.9818,-94.9186,2.0,231.8832954,29.14489664,-99999.0,'11111222,11111222,99999999' 
TABS,ioos:station:wmo:42043:1,2007-10-01T19:00:00Z,28.9818,-94.9186,2.0,219.4623495,26.5271559,-99999.0,'11111222,11111222,99999999' 
TABS,ioos:station:wmo:42043:1,2007-10-01T19:30:00Z,28.9818,-94.9186,2.0,240.1706019,23.64228627,-99999.0,'11111222,11111222,99999999' 
TABS,ioos:station:wmo:42043:1,2007-10-01T20:00:00Z,28.9818,-94.9186,2.0,228.3814037,21.81687879,-99999.0,'11111222,11111222,99999999' 
TABS,ioos:station:wmo:42043:1,2007-10-01T21:00:00Z,28.9818,-94.9186,2.0,237.1595933,25.61332661,-99999.0,'11111222,11111222,99999999' 
TABS,ioos:station:wmo:42043:1,2007-10-01T21:30:00Z,28.9818,-94.9186,2.0,248.248051,34.16238428,-99999.0,'11111222,11111222,99999999' 
TABS,ioos:station:wmo:42043:1,2007-10-01T22:00:00Z,28.9818,-94.9186,2.0,248.8682426,34.617835,-99999.0,'11111222,11111222,99999999' 
TABS,ioos:station:wmo:42043:1,2007-10-01T22:30:00Z,28.9818,-94.9186,2.0,228.6068218,38.55005188,-99999.0,'11111222,11111222,99999999' 
TABS,ioos:station:wmo:42043:1,2007-10-01T23:30:00Z,28.9818,-94.9186,2.0,230.904168,50.72826628,-99999.0,'11111222,11111222,99999999' 
TABS,ioos:station:wmo:42043:1,2007-10-02T00:00:00Z,28.9818,-94.9186,2.0,228.3992943,41.61575783,-99999.0,'11111222,11111222,99999999' 
TABS,ioos:station:wmo:42043:1,2007-10-02T00:30:00Z,28.9818,-94.9186,2.0,230.7787302,45.92665892,-99999.0,'11111222,11111222,99999999' 
TABS,ioos:station:wmo:42043:1,2007-10-02T01:00:00Z,28.9818,-94.9186,2.0,228.9768835,45.2648495,-99999.0,'11111222,11111222,99999999' 
TABS,ioos:station:wmo:42043:1,2007-10-02T01:30:00Z,28.9818,-94.9186,2.0,229.4200556,45.87211789,-99999.0,'11111222,11111222,99999999' 
TABS,ioos:station:wmo:42043:1,2007-10-02T02:00:00Z,28.9818,-94.9186,2.0,183.6117744,35.07968358,-99999.0,'11111222,11111222,99999999' 
TABS,ioos:station:wmo:42043:1,2007-10-02T02:30:00Z,28.9818,-94.9186,2.0,213.8065678,46.26209247,-99999.0,'11111222,11111222,99999999' 
TABS,ioos:station:wmo:42043:1,2007-10-02T03:00:00Z,28.9818,-94.9186,2.0,207.19977,48.0202728,-99999.0,'11111222,11111222,99999999' 
TABS,ioos:station:wmo:42043:1,2007-10-02T03:30:00Z,28.9818,-94.9186,2.0,209.9328786,45.67231656,-99999.0,'11111222,11111222,99999999' 
TABS,ioos:station:wmo:42043:1,2007-10-02T04:00:00Z,28.9818,-94.9186,2.0,200.307611,44.31453486,-99999.0,'11111222,11111222,99999999' 
TABS,ioos:station:wmo:42043:1,2007-10-02T04:30:00Z,28.9818,-94.9186,2.0,203.8437717,43.71074582,-99999.0,'11111222,11111222,99999999' 
TABS,ioos:station:wmo:42043:1,2007-10-02T05:00:00Z,28.9818,-94.9186,2.0,202.4947304,43.41318003,-99999.0,'11111222,11111222,99999999' 
TABS,ioos:station:wmo:42043:1,2007-10-02T05:30:00Z,28.9818,-94.9186,2.0,200.1604408,39.69193873,-99999.0,'11111222,11111222,99999999' 
TABS,ioos:station:wmo:42043:1,2007-10-02T06:00:00Z,28.9818,-94.9186,2.0,190.6989035,38.08203382,-99999.0,'11111222,11111222,99999999' 
TABS,ioos:station:wmo:42043:1,2007-10-02T06:30:00Z,28.9818,-94.9186,2.0,188.8027196,35.28564722,-99999.0,'11111222,11111222,99999999' 
TABS,ioos:station:wmo:42043:1,2007-10-02T07:00:00Z,28.9818,-94.9186,2.0,190.4994943,32.87038941,-99999.0,'11111222,11111222,99999999' 
TABS,ioos:station:wmo:42043:1,2007-10-02T07:30:00Z,28.9818,-94.9186,2.0,199.7345568,13.80056883,-99999.0,'11111222,11111222,99999999' 
TABS,ioos:station:wmo:42043:1,2007-10-02T08:00:00Z,28.9818,-94.9186,2.0,215.6534312,12.62684442,-99999.0,'11111222,11111222,99999999' 
TABS,ioos:station:wmo:42043:1,2007-10-02T08:30:00Z,28.9818,-94.9186,2.0,234.1825427,13.82433362,-99999.0,'11111222,11111222,99999999' 
TABS,ioos:station:wmo:42043:1,2007-10-02T09:00:00Z,28.9818,-94.9186,2.0,228.940628,13.16918373,-99999.0,'11111222,11111222,99999999' 
TABS,ioos:station:wmo:42043:1,2007-10-02T09:30:00Z,28.9818,-94.9186,2.0,220.1732984,15.54783908,-99999.0,'11111222,11111222,99999999' 
TABS,ioos:station:wmo:42043:1,2007-10-02T10:00:00Z,28.9818,-94.9186,2.0,215.9162209,11.77963072,-99999.0,'11111222,11111222,99999999' 
TABS,ioos:station:wmo:42043:1,2007-10-02T10:30:00Z,28.9818,-94.9186,2.0,210.9926199,16.85659811,-99999.0,'11111222,11111222,99999999' 
TABS,ioos:station:wmo:42043:1,2007-10-02T11:00:00Z,28.9818,-94.9186,2.0,215.0205373,22.80987725,-99999.0,'11111222,11111222,99999999' 
TABS,ioos:station:wmo:42043:1,2007-10-02T11:30:00Z,28.9818,-94.9186,2.0,221.7807909,21.2821357,-99999.0,'11111222,11111222,99999999' 
TABS,ioos:station:wmo:42043:1,2007-10-02T12:00:00Z,28.9818,-94.9186,2.0,234.2053733,24.39829912,-99999.0,'11111222,11111222,99999999' 
TABS,ioos:station:wmo:42043:1,2007-10-02T12:30:00Z,28.9818,-94.9186,2.0,235.6673786,27.96141985,-99999.0,'11111222,11111222,99999999' 
TABS,ioos:station:wmo:42043:1,2007-10-02T13:00:00Z,28.9818,-94.9186,2.0,231.2245784,31.82359188,-99999.0,'11111222,11111222,99999999' 
TABS,ioos:station:wmo:42043:1,2007-10-02T13:30:00Z,28.9818,-94.9186,2.0,264.0316938,29.9121146,-99999.0,'11111222,11111222,99999999' 
TABS,ioos:station:wmo:42043:1,2007-10-02T14:00:00Z,28.9818,-94.9186,2.0,241.8596773,35.96061318,-99999.0,'11111222,11111222,99999999' 
TABS,ioos:station:wmo:42043:1,2007-10-02T14:30:00Z,28.9818,-94.9186,2.0,254.8881975,51.055462,-99999.0,'11111222,11111222,99999999' 
TABS,ioos:station:wmo:42043:1,2007-10-02T15:00:00Z,28.9818,-94.9186,2.0,255.4934572,55.8917892,-99999.0,'11111222,11111222,99999999' 
TABS,ioos:station:wmo:42043:1,2007-10-02T15:30:00Z,28.9818,-94.9186,2.0,249.2914138,47.59495036,-99999.0,'11111222,11111222,99999999' 
TABS,ioos:station:wmo:42043:1,2007-10-02T16:00:00Z,28.9818,-94.9186,2.0,243.7240108,50.46422594,-99999.0,'11111222,11111222,99999999' 
TABS,ioos:station:wmo:42043:1,2007-10-02T16:30:00Z,28.9818,-94.9186,2.0,246.2922139,42.87849344,-99999.0,'11111222,11111222,99999999' 
TABS,ioos:station:wmo:42043:1,2007-10-02T17:00:00Z,28.9818,-94.9186,2.0,244.6426499,42.84811431,-99999.0,'11111222,11111222,99999999' 
TABS,ioos:station:wmo:42043:1,2007-10-02T17:30:00Z,28.9818,-94.9186,2.0,242.0233025,50.4788946,-99999.0,'11111222,11111222,99999999' 
TABS,ioos:station:wmo:42043:1,2007-10-02T18:00:00Z,28.9818,-94.9186,2.0,245.6046437,48.42323822,-99999.0,'11111222,11111222,99999999' 
TABS,ioos:station:wmo:42043:1,2007-10-02T18:30:00Z,28.9818,-94.9186,2.0,251.0516315,54.38703154,-99999.0,'11111222,11111222,99999999' 
TABS,ioos:station:wmo:42043:1,2007-10-02T19:00:00Z,28.9818,-94.9186,2.0,240.8698264,45.87192824,-99999.0,'11111222,11111222,99999999' 
TABS,ioos:station:wmo:42043:1,2007-10-02T19:30:00Z,28.9818,-94.9186,2.0,236.0613325,48.64766387,-99999.0,'11111222,11111222,99999999' 
TABS,ioos:station:wmo:42043:1,2007-10-02T20:00:00Z,28.9818,-94.9186,2.0,246.0479549,43.05778559,-99999.0,'11111222,11111222,99999999' 
TABS,ioos:station:wmo:42043:1,2007-10-02T20:30:00Z,28.9818,-94.9186,2.0,246.655261,45.92982582,-99999.0,'11111222,11111222,99999999' 
TABS,ioos:station:wmo:42043:1,2007-10-02T21:00:00Z,28.9818,-94.9186,2.0,249.7768659,40.44308223,-99999.0,'11111222,11111222,99999999' 
TABS,ioos:station:wmo:42043:1,2007-10-02T21:30:00Z,28.9818,-94.9186,2.0,253.4296824,36.9233395,-99999.0,'11111222,11111222,99999999' 
TABS,ioos:station:wmo:42043:1,2007-10-02T22:00:00Z,28.9818,-94.9186,2.0,246.7926027,35.65494917,-99999.0,'11111222,11111222,99999999' 
TABS,ioos:station:wmo:42043:1,2007-10-02T22:30:00Z,28.9818,-94.9186,2.0,265.5870845,38.21326471,-99999.0,'11111222,11111222,99999999' 
TABS,ioos:station:wmo:42043:1,2007-10-02T23:00:00Z,28.9818,-94.9186,2.0,250.2262336,40.61472639,-99999.0,'11111222,11111222,99999999' 
TABS,ioos:station:wmo:42043:1,2007-10-02T23:30:00Z,28.9818,-94.9186,2.0,256.8225982,34.61130018,-99999.0,'11111222,11111222,99999999' 
TABS,ioos:station:wmo:42043:1,2007-10-03T00:00:00Z,28.9818,-94.9186,2.0,261.3286735,34.16043618,-99999.0,'11111222,11111222,99999999' 
TABS,ioos:station:wmo:42043:1,2007-10-03T00:30:00Z,28.9818,-94.9186,2.0,247.8252019,51.0561583,-99999.0,'11111222,11111222,99999999' 
TABS,ioos:station:wmo:42043:1,2007-10-03T01:00:00Z,28.9818,-94.9186,2.0,247.616218,38.02493918,-99999.0,'11111222,11111222,99999999' 
TABS,ioos:station:wmo:42043:1,2007-10-03T01:30:00Z,28.9818,-94.9186,2.0,244.4533738,37.72843092,-99999.0,'11111222,11111222,99999999' 
TABS,ioos:station:wmo:42043:1,2007-10-03T02:00:00Z,28.9818,-94.9186,2.0,235.7423987,42.86655806,-99999.0,'11111222,11111222,99999999' 
TABS,ioos:station:wmo:42043:1,2007-10-03T02:30:00Z,28.9818,-94.9186,2.0,237.656884,37.98250255,-99999.0,'11111222,11111222,99999999' 
TABS,ioos:station:wmo:42043:1,2007-10-03T03:00:00Z,28.9818,-94.9186,2.0,230.379675,35.97343047,-99999.0,'11111222,11111222,99999999' 
TABS,ioos:station:wmo:42043:1,2007-10-03T03:30:00Z,28.9818,-94.9186,2.0,226.8318221,37.15624308,-99999.0,'11111222,11111222,99999999' 
TABS,ioos:station:wmo:42043:1,2007-10-03T04:00:00Z,28.9818,-94.9186,2.0,227.1461925,37.7577118,-99999.0,'11111222,11111222,99999999' 
TABS,ioos:station:wmo:42043:1,2007-10-03T04:30:00Z,28.9818,-94.9186,2.0,221.1251843,39.24219285,-99999.0,'11111222,11111222,99999999' 
TABS,ioos:station:wmo:42043:1,2007-10-03T05:00:00Z,28.9818,-94.9186,2.0,217.1175063,39.29036778,-99999.0,'11111222,11111222,99999999' 
TABS,ioos:station:wmo:42043:1,2007-10-03T05:30:00Z,28.9818,-94.9186,2.0,216.0567313,36.93571713,-99999.0,'11111222,11111222,99999999' 
TABS,ioos:station:wmo:42043:1,2007-10-03T06:00:00Z,28.9818,-94.9186,2.0,215.2574496,34.97584452,-99999.0,'11111222,11111222,99999999' 
TABS,ioos:station:wmo:42043:1,2007-10-03T06:30:00Z,28.9818,-94.9186,2.0,207.6890193,37.380836,-99999.0,'11111222,11111222,99999999' 
TABS,ioos:station:wmo:42043:1,2007-10-03T07:00:00Z,28.9818,-94.9186,2.0,208.1728768,36.49358574,-99999.0,'11111222,11111222,99999999' 
TABS,ioos:station:wmo:42043:1,2007-10-03T07:30:00Z,28.9818,-94.9186,2.0,201.5100141,36.54531434,-99999.0,'11111222,11111222,99999999' 
TABS,ioos:station:wmo:42043:1,2007-10-03T08:00:00Z,28.9818,-94.9186,2.0,200.5478483,33.78977952,-99999.0,'11111222,11111222,99999999' 
TABS,ioos:station:wmo:42043:1,2007-10-03T08:30:00Z,28.9818,-94.9186,2.0,198.005607,32.09169363,-99999.0,'11111222,11111222,99999999' 
TABS,ioos:station:wmo:42043:1,2007-10-03T09:00:00Z,28.9818,-94.9186,2.0,198.748908,33.44475146,-99999.0,'11111222,11111222,99999999' 
TABS,ioos:station:wmo:42043:1,2007-10-03T09:30:00Z,28.9818,-94.9186,2.0,188.4094082,33.91465907,-99999.0,'11111222,11111222,99999999' 
TABS,ioos:station:wmo:42043:1,2007-10-03T10:00:00Z,28.9818,-94.9186,2.0,182.3438151,33.00761882,-99999.0,'11111222,11111222,99999999' 
TABS,ioos:station:wmo:42043:1,2007-10-03T10:30:00Z,28.9818,-94.9186,2.0,182.59922,33.29425926,-99999.0,'11111222,11111222,99999999' 
TABS,ioos:station:wmo:42043:1,2007-10-03T11:00:00Z,28.9818,-94.9186,2.0,176.3443877,34.34988355,-99999.0,'11111222,11111222,99999999' 
TABS,ioos:station:wmo:42043:1,2007-10-03T11:30:00Z,28.9818,-94.9186,2.0,168.8598998,34.36754283,-99999.0,'11111222,11111222,99999999' 
TABS,ioos:station:wmo:42043:1,2007-10-03T12:00:00Z,28.9818,-94.9186,2.0,167.2847785,29.03195653,-99999.0,'11111222,11111222,99999999' 
TABS,ioos:station:wmo:42043:1,2007-10-03T12:30:00Z,28.9818,-94.9186,2.0,168.8719537,27.77214612,-99999.0,'11111222,11111222,99999999' 
TABS,ioos:station:wmo:42043:1,2007-10-03T13:00:00Z,28.9818,-94.9186,2.0,172.4798295,22.31189817,-99999.0,'11111222,11111222,99999999' 
TABS,ioos:station:wmo:42043:1,2007-10-03T13:30:00Z,28.9818,-94.9186,2.0,183.3971545,21.76825671,-99999.0,'11111222,11111222,99999999' 
TABS,ioos:station:wmo:42043:1,2007-10-03T14:00:00Z,28.9818,-94.9186,2.0,182.1078799,8.155519603,-99999.0,'11133222,11111222,99999999' 
TABS,ioos:station:wmo:42043:1,2007-10-03T14:30:00Z,28.9818,-94.9186,2.0,184.0530601,16.41104811,-99999.0,'11111222,11111222,99999999' 
TABS,ioos:station:wmo:42043:1,2007-10-03T15:00:00Z,28.9818,-94.9186,2.0,208.0581815,14.41411808,-99999.0,'11111222,11111222,99999999' 
TABS,ioos:station:wmo:42043:1,2007-10-03T15:30:00Z,28.9818,-94.9186,2.0,198.1798437,15.64078003,-99999.0,'11111222,11111222,99999999' 
TABS,ioos:station:wmo:42043:1,2007-10-03T16:00:00Z,28.9818,-94.9186,2.0,198.7564484,15.76736503,-99999.0,'11111222,11111222,99999999' 
TABS,ioos:station:wmo:42043:1,2007-10-03T16:30:00Z,28.9818,-94.9186,2.0,206.0112957,15.27752925,-99999.0,'11111222,11111222,99999999' 
TABS,ioos:station:wmo:42043:1,2007-10-03T17:00:00Z,28.9818,-94.9186,2.0,214.9129543,17.28007523,-99999.0,'11111222,11111222,99999999' 
TABS,ioos:station:wmo:42043:1,2007-10-03T17:30:00Z,28.9818,-94.9186,2.0,217.4602568,18.43097936,-99999.0,'11111222,11111222,99999999' 
TABS,ioos:station:wmo:42043:1,2007-10-03T18:00:00Z,28.9818,-94.9186,2.0,227.000881,21.26152629,-99999.0,'11111222,11111222,99999999' 
TABS,ioos:station:wmo:42043:1,2007-10-03T18:30:00Z,28.9818,-94.9186,2.0,232.6749254,21.91869065,-99999.0,'11111222,11111222,99999999' 
TABS,ioos:station:wmo:42043:1,2007-10-03T19:00:00Z,28.9818,-94.9186,2.0,226.9239822,23.1637389,-99999.0,'11111222,11111222,99999999' 
TABS,ioos:station:wmo:42043:1,2007-10-03T19:30:00Z,28.9818,-94.9186,2.0,236.0757955,30.58642346,-99999.0,'11111222,11111222,99999999' 
TABS,ioos:station:wmo:42043:1,2007-10-03T20:00:00Z,28.9818,-94.9186,2.0,237.2163661,32.94777079,-99999.0,'11111222,11111222,99999999' 
TABS,ioos:station:wmo:42043:1,2007-10-03T20:30:00Z,28.9818,-94.9186,2.0,236.1006177,38.78212217,-99999.0,'11111222,11111222,99999999' 
TABS,ioos:station:wmo:42043:1,2007-10-03T21:00:00Z,28.9818,-94.9186,2.0,239.2702685,32.70162381,-99999.0,'11111222,11111222,99999999' 
TABS,ioos:station:wmo:42043:1,2007-10-03T21:30:00Z,28.9818,-94.9186,2.0,254.0299594,25.95153367,-99999.0,'11111222,11111222,99999999' 
TABS,ioos:station:wmo:42043:1,2007-10-03T22:00:00Z,28.9818,-94.9186,2.0,284.7802399,24.10764609,-99999.0,'11111222,11111222,99999999' 
TABS,ioos:station:wmo:42043:1,2007-10-03T22:30:00Z,28.9818,-94.9186,2.0,289.6171653,34.34331667,-99999.0,'11111222,11111222,99999999' 
TABS,ioos:station:wmo:42043:1,2007-10-03T23:00:00Z,28.9818,-94.9186,2.0,293.1576544,34.6084455,-99999.0,'11111222,11111222,99999999' 
TABS,ioos:station:wmo:42043:1,2007-10-03T23:30:00Z,28.9818,-94.9186,2.0,306.8024892,30.44802128,-99999.0,'11111222,11111222,99999999' 
TABS,ioos:station:wmo:42043:1,2007-10-04T00:00:00Z,28.9818,-94.9186,2.0,310.5422908,36.66126703,-99999.0,'11111222,11111222,99999999' 
TABS,ioos:station:wmo:42043:1,2007-10-04T00:30:00Z,28.9818,-94.9186,2.0,310.6809687,29.7618027,-99999.0,'11111222,11111222,99999999' 
TABS,ioos:station:wmo:42043:1,2007-10-04T01:00:00Z,28.9818,-94.9186,2.0,317.8719423,32.88640601,-99999.0,'11111222,11111222,99999999' 
TABS,ioos:station:wmo:42043:1,2007-10-04T01:30:00Z,28.9818,-94.9186,2.0,323.2307196,36.55205603,-99999.0,'11111222,11111222,99999999' 
TABS,ioos:station:wmo:42043:1,2007-10-04T02:00:00Z,28.9818,-94.9186,2.0,323.7863801,27.77582042,-99999.0,'11111222,11111222,99999999' 
TABS,ioos:station:wmo:42043:1,2007-10-04T02:30:00Z,28.9818,-94.9186,2.0,332.6002858,27.31423438,-99999.0,'11111222,11111222,99999999' 
TABS,ioos:station:wmo:42043:1,2007-10-04T03:00:00Z,28.9818,-94.9186,2.0,316.0270095,25.65088108,-99999.0,'11111222,11111222,99999999' 
TABS,ioos:station:wmo:42043:1,2007-10-04T03:30:00Z,28.9818,-94.9186,2.0,323.4915104,26.33852312,-99999.0,'11111222,11111222,99999999' 
TABS,ioos:station:wmo:42043:1,2007-10-04T04:00:00Z,28.9818,-94.9186,2.0,324.9197308,24.91614938,-99999.0,'11111222,11111222,99999999' 
TABS,ioos:station:wmo:42043:1,2007-10-04T04:30:00Z,28.9818,-94.9186,2.0,328.8849509,24.63414297,-99999.0,'11111222,11111222,99999999' 
TABS,ioos:station:wmo:42043:1,2007-10-04T05:00:00Z,28.9818,-94.9186,2.0,335.7033803,24.18189612,-99999.0,'11111222,11111222,99999999' 
TABS,ioos:station:wmo:42043:1,2007-10-04T05:30:00Z,28.9818,-94.9186,2.0,329.2771583,23.68416349,-99999.0,'11111222,11111222,99999999' 
TABS,ioos:station:wmo:42043:1,2007-10-04T06:00:00Z,28.9818,-94.9186,2.0,337.4401774,25.80462943,-99999.0,'11111222,11111222,99999999' 
TABS,ioos:station:wmo:42043:1,2007-10-04T06:30:00Z,28.9818,-94.9186,2.0,332.9624249,23.84624079,-99999.0,'11111222,11111222,99999999' 
TABS,ioos:station:wmo:42043:1,2007-10-04T07:00:00Z,28.9818,-94.9186,2.0,334.8098728,22.7428846,-99999.0,'11111222,11111222,99999999' 
TABS,ioos:station:wmo:42043:1,2007-10-04T07:30:00Z,28.9818,-94.9186,2.0,336.5344229,17.45344092,-99999.0,'11111222,11111222,99999999' 
TABS,ioos:station:wmo:42043:1,2007-10-04T08:00:00Z,28.9818,-94.9186,2.0,341.5978961,11.11857005,-99999.0,'11111222,11111222,99999999' 
TABS,ioos:station:wmo:42043:1,2007-10-04T08:30:00Z,28.9818,-94.9186,2.0,315.209423,11.6249129,-99999.0,'11111222,11111222,99999999' 
TABS,ioos:station:wmo:42043:1,2007-10-04T09:00:00Z,28.9818,-94.9186,2.0,305.3607949,7.516608278,-99999.0,'11133222,11111222,99999999' 
TABS,ioos:station:wmo:42043:1,2007-10-04T09:30:00Z,28.9818,-94.9186,2.0,305.5958783,5.755423529,-99999.0,'11133222,11111222,99999999' 
TABS,ioos:station:wmo:42043:1,2007-10-04T10:00:00Z,28.9818,-94.9186,2.0,348.231949,4.412754242,-99999.0,'11133222,11111222,99999999' 
TABS,ioos:station:wmo:42043:1,2007-10-04T10:30:00Z,28.9818,-94.9186,2.0,213.1017894,6.756604177,-99999.0,'11133222,11111222,99999999' 
TABS,ioos:station:wmo:42043:1,2007-10-04T11:00:00Z,28.9818,-94.9186,2.0,224.6261847,21.694497,-99999.0,'11111222,11111222,99999999' 
TABS,ioos:station:wmo:42043:1,2007-10-04T11:30:00Z,28.9818,-94.9186,2.0,236.3964207,25.62163149,-99999.0,'11111222,11111222,99999999' 
TABS,ioos:station:wmo:42043:1,2007-10-04T12:00:00Z,28.9818,-94.9186,2.0,240.1350989,41.57033197,-99999.0,'11111222,11111222,99999999' 
TABS,ioos:station:wmo:42043:1,2007-10-04T12:30:00Z,28.9818,-94.9186,2.0,242.5477991,46.81098162,-99999.0,'11111222,11111222,99999999' 
TABS,ioos:station:wmo:42043:1,2007-10-04T13:00:00Z,28.9818,-94.9186,2.0,242.1116435,54.62381257,-99999.0,'11111222,11111222,99999999' 
TABS,ioos:station:wmo:42043:1,2007-10-04T13:30:00Z,28.9818,-94.9186,2.0,238.3995575,55.74562315,-99999.0,'11111222,11111222,99999999' 
TABS,ioos:station:wmo:42043:1,2007-10-04T14:00:00Z,28.9818,-94.9186,2.0,232.0345185,54.61797872,-99999.0,'11111222,11111222,99999999' 
TABS,ioos:station:wmo:42043:1,2007-10-04T14:30:00Z,28.9818,-94.9186,2.0,243.9115459,51.5744588,-99999.0,'11111222,11111222,99999999' 
TABS,ioos:station:wmo:42043:1,2007-10-04T15:00:00Z,28.9818,-94.9186,2.0,244.3088199,65.94932145,-99999.0,'11111222,11111222,99999999' 
TABS,ioos:station:wmo:42043:1,2007-10-04T15:30:00Z,28.9818,-94.9186,2.0,242.4633005,64.37223004,-99999.0,'11111222,11111222,99999999' 
TABS,ioos:station:wmo:42043:1,2007-10-04T16:00:00Z,28.9818,-94.9186,2.0,248.3466449,57.34662675,-99999.0,'11111222,11111222,99999999' 
TABS,ioos:station:wmo:42043:1,2007-10-04T16:30:00Z,28.9818,-94.9186,2.0,251.1789133,77.02850511,-99999.0,'11111222,11111222,99999999' 
TABS,ioos:station:wmo:42043:1,2007-10-04T17:00:00Z,28.9818,-94.9186,2.0,253.3694805,69.8830566,-99999.0,'11111222,11111222,99999999' 
TABS,ioos:station:wmo:42043:1,2007-10-04T17:30:00Z,28.9818,-94.9186,2.0,258.2226277,75.30521429,-99999.0,'11111222,11111222,99999999' 
TABS,ioos:station:wmo:42043:1,2007-10-04T18:00:00Z,28.9818,-94.9186,2.0,259.8841774,82.78684437,-99999.0,'11111222,11111222,99999999' 